User: anonymous   Login
Location: Unspecified
(0.0000°N, 0.0000°E)
Time: 00:39:51
(UTC+00:00)
Language:

STARLINK-1041 - Orbit

View from above orbital plane
View from above orbital plane
View from above satellite
View from above satellite

Ground track
Ground track

The orbit data is extracted from the following two-line orbital elements,

1 44746C 19074AK  21016.82344781  .00002071  00000-0  13916-3 0   166
2 44746  53.0584  16.6747 0001457  66.8907   0.5305 15.06291388    13
Epoch (UTC): 16 January 2021 19:45:45
Eccentricity: 0.0001457
inclination: 53.0584°
perigee height: 546 km
apogee height: 548 km
right ascension of ascending node: 16.6747°
argument of perigee: 66.8907°
revolutions per day: 15.06291388
mean anomaly at epoch: 0.5305°
orbit number at epoch: 1

The dashed part of the orbit path shows where the satellite is in the earth's shadow,  

DLR